Weather History for Richlands, VA

Change the Weather History Date:

Saturday, October 12, 2013

  Actual Average (KBLF) Record (KBLF)
Temperature  
Mean Temperature 62 °F 57 °F  
Max Temperature 66 °F 67 °F 80 °F (1969)
Min Temperature 58 °F 48 °F 28 °F (1988)
Degree Days  
Heating Degree Days 3 8  
Month to date heating degree days 84  
Since 1 July heating degree days 163  
Cooling Degree Days 0 1  
Month to date cooling degree days 12  
Year to date cooling degree days 844  
Growing Degree Days 12 (Base 50)    
Moisture  
Dew Point 58 °F    
Average Humidity 87    
Maximum Humidity 95    
Minimum Humidity 76    
Precipitation  
Precipitation 0.00 in 0.08 in 1.45 in (1990)
Month to date precipitation 1.01  
Year to date precipitation 32.54  
Snow  
Snow 0.00 in - - ()
Month to date snowfall  
Since 1 July snowfall  
Since 1 September snowfall  
Snow Depth -    
Sea Level Pressure  
Sea Level Pressure 30.12 in    
Wind  
Wind Speed 1 mph (NNW)    
Max Wind Speed 5 mph    
Max Gust Speed -    
Visibility 7 miles    
Events Fog    
T = Trace of Precipitation, MM = Missing Value Source: NWS Daily Summary

Daily Weather History Graph

Daily Weather History Graph

Search for Another Location

Airport:

Trip Planner

Search our weather history database for the weather conditions in past years. The results will help you decide how hot, cold, wet, or windy it might be!

Date:

Astronomy

Oct. 12, 2013 Rise Set
Actual Time 7:32 AM EDT 6:54 PM EDT
Civil Twilight 7:06 AM EDT 7:20 PM EDT
Nautical Twilight 6:36 AM EDT 7:50 PM EDT
Astronomical Twilight 6:06 AM EDT 8:20 PM EDT
Moon 2:54 PM EDT (10/12) 12:43 AM EDT (10/12)
Length of Visible Light 12h 13m
Length of Day
11h 21m
First Quarter, 58% of the Moon is Illuminated
Oct 12
First Quarter
Oct 18
Full
Oct 26
Last Quarter
Nov 3
New
Nov 10
First Quarter

Hourly Weather History & Observations

Time (EDT) Temp. Dew Point Humidity Pressure Visibility Wind Dir Wind Speed Gust Speed Precip Events Conditions
12:15 AM 60.1 °F 58.5 °F 94% 30.07 in 4.0 mi Calm Calm - N/A   Overcast
12:35 AM 60.1 °F 58.3 °F 94% 30.06 in 10.0 mi Calm Calm - N/A   Overcast
12:55 AM 60.1 °F 58.3 °F 94% 30.06 in 2.5 mi Calm Calm - N/A   Overcast
1:15 AM 60.1 °F 58.3 °F 94% 30.06 in 1.0 mi Calm Calm - N/A   Overcast
1:35 AM 60.1 °F 58.3 °F 94% 30.06 in 5.0 mi Calm Calm - N/A   Overcast
1:55 AM 60.1 °F 58.3 °F 94% 30.06 in 7.0 mi Calm Calm - N/A   Overcast
2:15 AM 59.9 °F 58.1 °F 94% 30.06 in 2.5 mi Calm Calm - N/A   Overcast
2:35 AM 59.9 °F 58.1 °F 94% 30.06 in 1.5 mi Calm Calm - N/A   Overcast
2:55 AM 59.9 °F 58.1 °F 94% 30.06 in 4.0 mi Calm Calm - N/A   Overcast
3:15 AM 59.9 °F 57.9 °F 93% 30.06 in 7.0 mi Calm Calm - N/A   Overcast
3:35 AM 59.9 °F 57.9 °F 93% 30.06 in 5.0 mi Calm Calm - N/A   Overcast
3:55 AM 59.9 °F 58.1 °F 94% 30.06 in 5.0 mi Calm Calm - N/A   Overcast
4:15 AM 59.9 °F 57.9 °F 93% 30.06 in 5.0 mi Calm Calm - N/A   Overcast
4:35 AM 59.9 °F 58.1 °F 94% 30.07 in 2.5 mi Calm Calm - N/A   Overcast
4:55 AM 59.7 °F 57.9 °F 94% 30.07 in 2.5 mi Calm Calm - N/A   Overcast
5:15 AM 59.7 °F 58.1 °F 94% 30.07 in 3.0 mi Calm Calm - N/A   Overcast
5:35 AM 59.9 °F 58.1 °F 94% 30.08 in 2.5 mi Calm Calm - N/A   Overcast
5:55 AM 59.5 °F 58.1 °F 95% 30.08 in 2.5 mi Calm Calm - N/A   Overcast
6:15 AM 59.5 °F 58.1 °F 95% 30.08 in 0.5 mi Calm Calm - N/A Fog Fog
6:35 AM 59.4 °F 57.7 °F 94% 30.08 in 0.2 mi Calm Calm - N/A Fog Fog
6:55 AM 59.0 °F 57.6 °F 95% 30.09 in 0.8 mi Calm Calm - N/A   Overcast
7:15 AM 59.0 °F 57.4 °F 94% 30.10 in 3.0 mi NE 3.5 mph - N/A   Overcast
7:35 AM 58.8 °F 57.2 °F 94% 30.10 in 3.0 mi NE 3.5 mph - N/A   Overcast
7:55 AM 59.0 °F 57.2 °F 94% 30.10 in 3.0 mi NE 3.5 mph - N/A   Overcast
8:15 AM 59.4 °F 57.4 °F 93% 30.11 in 5.0 mi Calm Calm - N/A   Overcast
8:35 AM 59.5 °F 57.6 °F 93% 30.12 in 5.0 mi Calm Calm - N/A   Overcast
8:55 AM 59.7 °F 57.7 °F 93% 30.12 in 4.0 mi Calm Calm - N/A   Overcast
9:15 AM 59.7 °F 57.6 °F 93% 30.12 in 5.0 mi Calm Calm - N/A   Overcast
9:35 AM 60.6 °F 57.7 °F 90% 30.12 in 7.0 mi Calm Calm - N/A   Overcast
9:55 AM 60.8 °F 57.7 °F 90% 30.12 in 10.0 mi Calm Calm - N/A   Overcast
10:15 AM 61.0 °F 57.7 °F 89% 30.12 in 10.0 mi NW 3.5 mph - N/A   Overcast
10:35 AM 61.9 °F 57.4 °F 85% 30.12 in 10.0 mi Calm Calm - N/A   Overcast
10:55 AM 61.7 °F 56.5 °F 83% 30.13 in 7.0 mi WNW 3.5 mph - N/A   Overcast
11:15 AM 62.1 °F 56.7 °F 82% 30.13 in 10.0 mi Calm Calm - N/A   Overcast
11:35 AM 61.7 °F 57.4 °F 86% 30.13 in 10.0 mi Calm Calm - N/A   Overcast
11:55 AM 62.1 °F 57.7 °F 86% 30.13 in 7.0 mi West 4.6 mph - N/A   Overcast
12:15 PM 63.0 °F 57.7 °F 83% 30.13 in 10.0 mi NW 3.5 mph - N/A   Overcast
12:35 PM 63.0 °F 57.9 °F 84% 30.13 in 10.0 mi NW 3.5 mph - N/A   Overcast
12:55 PM 63.0 °F 57.6 °F 82% 30.13 in 7.0 mi Calm Calm - N/A   Overcast
1:15 PM 63.7 °F 57.9 °F 81% 30.13 in 7.0 mi Calm Calm - N/A   Overcast
1:35 PM 65.3 °F 58.5 °F 78% 30.12 in 10.0 mi WNW 3.5 mph - N/A   Overcast
1:55 PM 64.6 °F 57.2 °F 77% 30.12 in 10.0 mi Calm Calm - N/A   Overcast
2:15 PM 65.5 °F 57.7 °F 76% 30.12 in 10.0 mi SW 3.5 mph - N/A   Overcast
2:35 PM 65.5 °F 57.6 °F 76% 30.12 in 10.0 mi Calm Calm - N/A   Overcast
2:55 PM 65.1 °F 58.1 °F 78% 30.12 in 10.0 mi NNE 3.5 mph - N/A   Overcast
3:15 PM 65.1 °F 58.3 °F 78% 30.13 in 10.0 mi NNW 3.5 mph - N/A   Overcast
3:35 PM 65.1 °F 58.1 °F 78% 30.13 in 10.0 mi NNW 3.5 mph - N/A   Overcast
3:55 PM 65.3 °F 58.1 °F 77% 30.14 in 10.0 mi Calm Calm - N/A   Overcast
4:15 PM 65.3 °F 58.1 °F 77% 30.13 in 10.0 mi Calm Calm - N/A   Overcast
4:35 PM 66.0 °F 58.5 °F 77% 30.13 in 10.0 mi Calm Calm - N/A   Overcast
4:55 PM 66.2 °F 58.3 °F 76% 30.13 in 10.0 mi Calm Calm - N/A   Overcast
5:15 PM 65.7 °F 58.1 °F 77% 30.14 in 10.0 mi Calm Calm - N/A   Overcast
5:35 PM 65.7 °F 58.3 °F 77% 30.14 in 10.0 mi Calm Calm - N/A   Overcast
5:55 PM 66.2 °F 59.2 °F 78% 30.15 in 10.0 mi Calm Calm - N/A   Overcast
6:15 PM 65.5 °F 59.2 °F 80% 30.15 in 10.0 mi Calm Calm - N/A   Mostly Cloudy
6:35 PM 65.1 °F 59.2 °F 81% 30.16 in 10.0 mi Calm Calm - N/A   Overcast
6:55 PM 64.9 °F 58.6 °F 80% 30.16 in 10.0 mi Calm Calm - N/A   Overcast
7:15 PM 64.8 °F 59.2 °F 82% 30.16 in 10.0 mi Calm Calm - N/A   Overcast
7:35 PM 64.4 °F 59.2 °F 83% 30.16 in 10.0 mi Calm Calm - N/A   Overcast
7:55 PM 64.6 °F 59.2 °F 83% 30.17 in 10.0 mi Calm Calm - N/A   Overcast
8:15 PM 64.4 °F 59.0 °F 83% 30.17 in 10.0 mi Calm Calm - N/A   Overcast
8:35 PM 63.5 °F 59.2 °F 86% 30.17 in - Calm Calm - N/A   Overcast
8:55 PM 63.5 °F 59.5 °F 87% 30.17 in 10.0 mi Calm Calm - N/A   Overcast
9:15 PM 63.0 °F 59.4 °F 88% 30.16 in 7.0 mi Calm Calm - N/A   Mostly Cloudy
9:35 PM 63.0 °F 58.8 °F 86% 30.16 in 10.0 mi ESE 3.5 mph - N/A   Mostly Cloudy
9:55 PM 62.2 °F 58.5 °F 87% 30.17 in 10.0 mi Calm Calm - N/A   Scattered Clouds
10:15 PM 62.6 °F 58.6 °F 87% 30.17 in 10.0 mi Calm Calm - N/A   Mostly Cloudy
10:35 PM 61.7 °F 59.0 °F 91% 30.17 in 7.0 mi Calm Calm - N/A   Scattered Clouds
10:55 PM 61.7 °F 59.2 °F 91% 30.17 in 7.0 mi Calm Calm - N/A   Scattered Clouds
11:15 PM 61.7 °F 59.4 °F 92% 30.18 in - Calm Calm - N/A   Mostly Cloudy
11:35 PM 62.1 °F 59.5 °F 91% 30.17 in - ENE 3.5 mph - N/A   Overcast
11:55 PM 62.1 °F 59.5 °F 91% 30.18 in - Calm Calm - N/A   Overcast